Year,Month,Day,Hour,Minute,Value (Times are PST for windspeed in km/hr)
2010,11,22,00,00,0.00
2010,11,22,00,01,1.40
2010,11,22,00,02,0.80
2010,11,22,00,03,1.30
2010,11,22,00,04,2.00
2010,11,22,00,05,1.50
2010,11,22,00,06,3.40
2010,11,22,00,07,2.30
2010,11,22,00,08,2.10
2010,11,22,00,09,0.10
2010,11,22,00,10,1.60
2010,11,22,00,11,1.00
2010,11,22,00,12,3.30
2010,11,22,00,13,0.90
2010,11,22,00,14,0.90
2010,11,22,00,15,2.00
2010,11,22,00,16,4.70
2010,11,22,00,17,2.00
2010,11,22,00,18,3.10
2010,11,22,00,19,3.10
2010,11,22,00,20,0.90
2010,11,22,00,21,0.00
2010,11,22,00,22,2.00
2010,11,22,00,23,1.60
2010,11,22,00,24,1.20
2010,11,22,00,25,0.20
2010,11,22,00,26,0.50
2010,11,22,00,27,1.90
2010,11,22,00,28,3.10
2010,11,22,00,29,1.00
2010,11,22,00,30,1.70
2010,11,22,00,31,1.00
2010,11,22,00,32,0.80
2010,11,22,00,33,0.60
2010,11,22,00,34,2.00
2010,11,22,00,35,3.10
2010,11,22,00,36,0.80
2010,11,22,00,37,0.00
2010,11,22,00,38,0.00
2010,11,22,00,39,0.00
2010,11,22,00,40,0.00
2010,11,22,00,41,0.10
2010,11,22,00,42,0.00
2010,11,22,00,43,0.00
2010,11,22,00,44,0.00
2010,11,22,00,45,0.60
2010,11,22,00,46,2.40
2010,11,22,00,47,0.70
2010,11,22,00,48,1.10
2010,11,22,00,49,0.50
2010,11,22,00,50,2.90
2010,11,22,00,51,0.10
2010,11,22,00,52,0.70
2010,11,22,00,53,0.90
2010,11,22,00,54,0.00
2010,11,22,00,55,1.70
2010,11,22,00,56,4.00
2010,11,22,00,57,3.70
2010,11,22,00,58,1.90
2010,11,22,00,59,0.60
2010,11,22,01,00,2.90
2010,11,22,01,01,0.60
2010,11,22,01,02,1.50
2010,11,22,01,03,0.40
2010,11,22,01,04,1.60
2010,11,22,01,05,2.10
2010,11,22,01,06,1.20
2010,11,22,01,07,0.90
2010,11,22,01,08,1.80
2010,11,22,01,09,2.00
2010,11,22,01,10,3.00
2010,11,22,01,11,2.00
2010,11,22,01,12,1.90
2010,11,22,01,13,2.20
2010,11,22,01,14,2.60
2010,11,22,01,15,1.30
2010,11,22,01,16,1.70
2010,11,22,01,17,1.10
2010,11,22,01,18,1.70
2010,11,22,01,19,2.80
2010,11,22,01,20,2.30
2010,11,22,01,21,0.20
2010,11,22,01,22,0.00
2010,11,22,01,23,2.10
2010,11,22,01,24,1.60
2010,11,22,01,25,2.80
2010,11,22,01,26,1.30
2010,11,22,01,27,3.00
2010,11,22,01,28,6.40
2010,11,22,01,29,5.40
2010,11,22,01,30,1.10
2010,11,22,01,31,1.30
2010,11,22,01,32,1.40
2010,11,22,01,33,0.00
2010,11,22,01,34,0.00
2010,11,22,01,35,1.20
2010,11,22,01,36,1.80
2010,11,22,01,37,1.80
2010,11,22,01,38,1.70
2010,11,22,01,39,0.40
2010,11,22,01,40,0.20
2010,11,22,01,41,0.40
2010,11,22,01,42,6.00
2010,11,22,01,43,2.50
2010,11,22,01,44,5.10
2010,11,22,01,45,11.40
2010,11,22,01,46,6.90
2010,11,22,01,47,3.70
2010,11,22,01,48,3.60
2010,11,22,01,49,0.80
2010,11,22,01,50,2.30
2010,11,22,01,51,3.90
2010,11,22,01,52,13.60
2010,11,22,01,53,4.50
2010,11,22,01,54,4.40
2010,11,22,01,55,3.30
2010,11,22,01,56,2.90
2010,11,22,01,57,2.10
2010,11,22,01,58,2.60
2010,11,22,01,59,2.00
2010,11,22,02,00,4.20
2010,11,22,02,01,3.40
2010,11,22,02,02,7.80
2010,11,22,02,03,3.00
2010,11,22,02,04,1.90
2010,11,22,02,05,5.30
2010,11,22,02,06,2.00
2010,11,22,02,07,2.90
2010,11,22,02,08,2.90
2010,11,22,02,09,2.40
2010,11,22,02,10,3.60
2010,11,22,02,11,2.10
2010,11,22,02,12,0.80
2010,11,22,02,13,6.10
2010,11,22,02,14,6.70
2010,11,22,02,15,8.60
2010,11,22,02,16,3.60
2010,11,22,02,17,4.30
2010,11,22,02,18,4.70
2010,11,22,02,19,1.90
2010,11,22,02,20,1.10
2010,11,22,02,21,2.80
2010,11,22,02,22,5.30
2010,11,22,02,23,3.30
2010,11,22,02,24,5.40
2010,11,22,02,25,7.50
2010,11,22,02,26,5.20
2010,11,22,02,27,3.20
2010,11,22,02,28,4.90
2010,11,22,02,29,6.40
2010,11,22,02,30,5.40
2010,11,22,02,31,5.50
2010,11,22,02,32,9.70
2010,11,22,02,33,3.30
2010,11,22,02,34,6.70
2010,11,22,02,35,1.50
2010,11,22,02,36,5.30
2010,11,22,02,37,5.60
2010,11,22,02,38,6.10
2010,11,22,02,39,3.90
2010,11,22,02,40,9.20
2010,11,22,02,41,9.30
2010,11,22,02,42,5.90
2010,11,22,02,43,3.10
2010,11,22,02,44,4.40
2010,11,22,02,45,3.90
2010,11,22,02,46,0.80
2010,11,22,02,47,6.10
2010,11,22,02,48,7.50
2010,11,22,02,49,8.90
2010,11,22,02,50,5.40
2010,11,22,02,51,4.70
2010,11,22,02,52,2.70
2010,11,22,02,53,5.20
2010,11,22,02,54,4.40
2010,11,22,02,55,5.60
2010,11,22,02,56,4.90
2010,11,22,02,57,7.80
2010,11,22,02,58,3.20
2010,11,22,02,59,1.10
2010,11,22,03,00,1.90
2010,11,22,03,01,4.80
2010,11,22,03,02,6.40
2010,11,22,03,03,6.20
2010,11,22,03,04,4.80
2010,11,22,03,05,6.50
2010,11,22,03,06,3.90
2010,11,22,03,07,3.20
2010,11,22,03,08,7.60
2010,11,22,03,09,3.20
2010,11,22,03,10,5.60
2010,11,22,03,11,9.30
2010,11,22,03,12,6.30
2010,11,22,03,13,3.50
2010,11,22,03,14,0.40
2010,11,22,03,15,0.60
2010,11,22,03,16,4.30
2010,11,22,03,17,2.00
2010,11,22,03,18,1.90
2010,11,22,03,19,2.10
2010,11,22,03,20,3.40
2010,11,22,03,21,5.40
2010,11,22,03,22,3.60
2010,11,22,03,23,6.00
2010,11,22,03,24,4.80
2010,11,22,03,25,4.90
2010,11,22,03,26,3.00
2010,11,22,03,27,2.40
2010,11,22,03,28,1.60
2010,11,22,03,29,3.00
2010,11,22,03,30,2.20
2010,11,22,03,31,5.20
2010,11,22,03,32,8.50
2010,11,22,03,33,5.40
2010,11,22,03,34,3.80
2010,11,22,03,35,4.60
2010,11,22,03,36,2.90
2010,11,22,03,37,1.80
2010,11,22,03,38,3.50
2010,11,22,03,39,1.50
2010,11,22,03,40,3.00
2010,11,22,03,41,3.60
2010,11,22,03,42,3.40
2010,11,22,03,43,4.90
2010,11,22,03,44,5.40
2010,11,22,03,45,4.30
2010,11,22,03,46,3.80
2010,11,22,03,47,3.50
2010,11,22,03,48,1.90
2010,11,22,03,49,3.30
2010,11,22,03,50,3.10
2010,11,22,03,51,3.40
2010,11,22,03,52,4.10
2010,11,22,03,53,5.60
2010,11,22,03,54,3.30
2010,11,22,03,55,1.80
2010,11,22,03,56,2.80
2010,11,22,03,57,3.00
2010,11,22,03,58,5.90
2010,11,22,03,59,6.10
2010,11,22,04,00,5.50
2010,11,22,04,01,3.30
2010,11,22,04,02,4.50
2010,11,22,04,03,4.40
2010,11,22,04,04,4.70
2010,11,22,04,05,6.20
2010,11,22,04,06,7.60
2010,11,22,04,07,9.10
2010,11,22,04,08,2.40
2010,11,22,04,09,3.40
2010,11,22,04,10,3.70
2010,11,22,04,11,2.30
2010,11,22,04,12,2.00
2010,11,22,04,13,2.60
2010,11,22,04,14,2.30
2010,11,22,04,15,3.80
2010,11,22,04,16,4.20
2010,11,22,04,17,5.80
2010,11,22,04,18,7.60
2010,11,22,04,19,5.10
2010,11,22,04,20,4.30
2010,11,22,04,21,5.60
2010,11,22,04,22,1.80
2010,11,22,04,23,7.20
2010,11,22,04,24,4.00
2010,11,22,04,25,5.50
2010,11,22,04,26,5.70
2010,11,22,04,27,4.10
2010,11,22,04,28,3.80
2010,11,22,04,29,2.00
2010,11,22,04,30,3.80
2010,11,22,04,31,4.70
2010,11,22,04,32,4.30
2010,11,22,04,33,5.10
2010,11,22,04,34,5.10
2010,11,22,04,35,2.80
2010,11,22,04,36,2.00
2010,11,22,04,37,4.50
2010,11,22,04,38,6.10
2010,11,22,04,39,6.90
2010,11,22,04,40,3.50
2010,11,22,04,41,2.90
2010,11,22,04,42,7.50
2010,11,22,04,43,4.50
2010,11,22,04,44,4.00
2010,11,22,04,45,5.50
2010,11,22,04,46,7.90
2010,11,22,04,47,4.70
2010,11,22,04,48,0.60
2010,11,22,04,49,1.10
2010,11,22,04,50,1.40
2010,11,22,04,51,2.90
2010,11,22,04,52,5.90
2010,11,22,04,53,9.00
2010,11,22,04,54,4.70
2010,11,22,04,55,3.00
2010,11,22,04,56,5.30
2010,11,22,04,57,4.60
2010,11,22,04,58,5.80
2010,11,22,04,59,7.90
2010,11,22,05,00,8.90
2010,11,22,05,01,5.60
2010,11,22,05,02,5.70
2010,11,22,05,03,6.80
2010,11,22,05,04,5.20
2010,11,22,05,05,6.70
2010,11,22,05,06,13.20
2010,11,22,05,07,6.30
2010,11,22,05,08,7.20
2010,11,22,05,09,4.50
2010,11,22,05,10,11.40
2010,11,22,05,11,5.90
2010,11,22,05,12,7.20
2010,11,22,05,13,5.20
2010,11,22,05,14,5.70
2010,11,22,05,15,5.80
2010,11,22,05,16,4.70
2010,11,22,05,17,10.00
2010,11,22,05,18,5.80
2010,11,22,05,19,8.80
2010,11,22,05,20,6.90
2010,11,22,05,21,5.20
2010,11,22,05,22,5.10
2010,11,22,05,23,5.50
2010,11,22,05,24,6.40
2010,11,22,05,25,8.90
2010,11,22,05,26,10.60
2010,11,22,05,27,5.10
2010,11,22,05,28,3.60
2010,11,22,05,29,6.80
2010,11,22,05,30,10.60
2010,11,22,05,31,7.40
2010,11,22,05,32,8.00
2010,11,22,05,33,4.70
2010,11,22,05,34,5.50
2010,11,22,05,35,5.00
2010,11,22,05,36,3.30
2010,11,22,05,37,2.50
2010,11,22,05,38,8.90
2010,11,22,05,39,19.10
2010,11,22,05,40,10.00
2010,11,22,05,41,12.70
2010,11,22,05,42,8.30
2010,11,22,05,43,9.40
2010,11,22,05,44,10.80
2010,11,22,05,45,10.40
2010,11,22,05,46,7.70
2010,11,22,05,47,6.50
2010,11,22,05,48,7.50
2010,11,22,05,49,6.30
2010,11,22,05,50,8.50
2010,11,22,05,51,10.20
2010,11,22,05,52,5.00
2010,11,22,05,53,5.80
2010,11,22,05,54,5.90
2010,11,22,05,55,10.40
2010,11,22,05,56,10.30
2010,11,22,05,57,6.60
2010,11,22,05,58,5.20
2010,11,22,05,59,10.50
2010,11,22,06,00,14.90
2010,11,22,06,01,5.90
2010,11,22,06,02,9.90
2010,11,22,06,03,9.00
2010,11,22,06,04,5.90
2010,11,22,06,05,8.30
2010,11,22,06,06,7.10
2010,11,22,06,07,4.70
2010,11,22,06,08,5.50
2010,11,22,06,09,2.40
2010,11,22,06,10,11.20
2010,11,22,06,11,12.60
2010,11,22,06,12,10.90
2010,11,22,06,13,15.90
2010,11,22,06,14,11.60
2010,11,22,06,15,14.60
2010,11,22,06,16,12.90
2010,11,22,06,17,15.80
2010,11,22,06,18,5.70
2010,11,22,06,19,11.50
2010,11,22,06,20,14.90
2010,11,22,06,21,10.00
2010,11,22,06,22,11.90
2010,11,22,06,23,13.50
2010,11,22,06,24,14.80
2010,11,22,06,25,8.90
2010,11,22,06,26,9.10
2010,11,22,06,27,12.60
2010,11,22,06,28,10.30
2010,11,22,06,29,9.90
2010,11,22,06,30,12.10
2010,11,22,06,31,17.50
2010,11,22,06,32,10.70
2010,11,22,06,33,4.40
2010,11,22,06,34,10.20
2010,11,22,06,35,8.20
2010,11,22,06,36,21.30
2010,11,22,06,37,17.70
2010,11,22,06,38,6.90
2010,11,22,06,39,10.10
2010,11,22,06,40,10.50
2010,11,22,06,41,9.80
2010,11,22,06,42,8.90
2010,11,22,06,43,13.00
2010,11,22,06,44,14.30
2010,11,22,06,45,13.70
2010,11,22,06,46,7.20
2010,11,22,06,47,19.70
2010,11,22,06,48,12.30
2010,11,22,06,49,10.20
2010,11,22,06,50,12.90
2010,11,22,06,51,13.30
2010,11,22,06,52,9.10
2010,11,22,06,53,15.30
2010,11,22,06,54,16.30
2010,11,22,06,55,9.20
2010,11,22,06,56,7.90
2010,11,22,06,57,17.40
2010,11,22,06,58,11.10
2010,11,22,06,59,10.20
2010,11,22,07,00,11.30
2010,11,22,07,01,9.10
2010,11,22,07,02,8.10
2010,11,22,07,03,11.30
2010,11,22,07,04,22.30
2010,11,22,07,05,18.80
2010,11,22,07,06,12.00
2010,11,22,07,07,17.30
2010,11,22,07,08,12.10
2010,11,22,07,09,12.80
2010,11,22,07,10,4.60
2010,11,22,07,11,6.00
2010,11,22,07,12,7.00
2010,11,22,07,13,9.30
2010,11,22,07,14,15.80
2010,11,22,07,15,16.30
2010,11,22,07,16,7.40
2010,11,22,07,17,13.40
2010,11,22,07,18,10.40
2010,11,22,07,19,11.30
2010,11,22,07,20,25.50
2010,11,22,07,21,15.20
2010,11,22,07,22,8.80
2010,11,22,07,23,19.40
2010,11,22,07,24,13.70
2010,11,22,07,25,10.70
2010,11,22,07,26,17.20
2010,11,22,07,27,8.80
2010,11,22,07,28,16.40
2010,11,22,07,29,18.80
2010,11,22,07,30,11.30
2010,11,22,07,31,10.70
2010,11,22,07,32,25.00
2010,11,22,07,33,21.60
2010,11,22,07,34,10.00
2010,11,22,07,35,9.90
2010,11,22,07,36,13.70
2010,11,22,07,37,11.90
2010,11,22,07,38,19.70
2010,11,22,07,39,8.60
2010,11,22,07,40,14.00
2010,11,22,07,41,19.70
2010,11,22,07,42,14.60
2010,11,22,07,43,16.10
2010,11,22,07,44,14.30
2010,11,22,07,45,5.90
2010,11,22,07,46,12.50
2010,11,22,07,47,13.80
2010,11,22,07,48,16.60
2010,11,22,07,49,14.80
2010,11,22,07,50,13.60
2010,11,22,07,51,16.50
2010,11,22,07,52,11.00
2010,11,22,07,53,14.50
2010,11,22,07,54,11.70
2010,11,22,07,55,19.80
2010,11,22,07,56,14.00
2010,11,22,07,57,11.50
2010,11,22,07,58,16.20
2010,11,22,07,59,9.10
2010,11,22,08,00,7.90
2010,11,22,08,01,8.50
2010,11,22,08,02,13.00
2010,11,22,08,03,20.90
2010,11,22,08,04,15.40
2010,11,22,08,05,29.40
2010,11,22,08,06,11.00
2010,11,22,08,07,9.30
2010,11,22,08,08,15.50
2010,11,22,08,09,31.80
2010,11,22,08,10,19.80
2010,11,22,08,11,24.30
2010,11,22,08,12,5.90
2010,11,22,08,13,21.90
2010,11,22,08,14,22.60
2010,11,22,08,15,12.20
2010,11,22,08,16,9.10
2010,11,22,08,17,6.20
2010,11,22,08,18,6.10
2010,11,22,08,19,10.50
2010,11,22,08,20,8.20
2010,11,22,08,21,23.20
2010,11,22,08,22,15.80
2010,11,22,08,23,11.30
2010,11,22,08,24,11.10
2010,11,22,08,25,12.80
2010,11,22,08,26,12.60
2010,11,22,08,27,10.60
2010,11,22,08,28,7.80
2010,11,22,08,29,11.40
2010,11,22,08,30,10.20
2010,11,22,08,31,15.20
2010,11,22,08,32,10.90
2010,11,22,08,33,10.00
2010,11,22,08,34,10.80
2010,11,22,08,35,10.30
2010,11,22,08,36,8.70
2010,11,22,08,37,15.10
2010,11,22,08,38,7.30
2010,11,22,08,39,19.90
2010,11,22,08,40,14.40
2010,11,22,08,41,11.10
2010,11,22,08,42,5.50
2010,11,22,08,43,10.00
2010,11,22,08,44,12.40
2010,11,22,08,45,12.60
2010,11,22,08,46,10.40
2010,11,22,08,47,21.30
2010,11,22,08,48,5.00
2010,11,22,08,49,7.20
2010,11,22,08,50,12.30
2010,11,22,08,51,7.80
2010,11,22,08,52,7.00
2010,11,22,08,53,10.80
2010,11,22,08,54,11.50
2010,11,22,08,55,14.20
2010,11,22,08,56,9.10
2010,11,22,08,57,9.80
2010,11,22,08,58,15.20
2010,11,22,08,59,11.60
2010,11,22,09,00,12.50
2010,11,22,09,01,13.80
2010,11,22,09,02,7.20
2010,11,22,09,03,14.60
2010,11,22,09,04,8.40
2010,11,22,09,05,9.20
2010,11,22,09,06,7.40
2010,11,22,09,07,13.30
2010,11,22,09,08,18.00
2010,11,22,09,09,4.70
2010,11,22,09,10,11.10
2010,11,22,09,11,12.80
2010,11,22,09,12,17.50
2010,11,22,09,13,14.20
2010,11,22,09,14,4.80
2010,11,22,09,15,4.70
2010,11,22,09,16,8.00
2010,11,22,09,17,4.20
2010,11,22,09,18,7.70
2010,11,22,09,19,16.30
2010,11,22,09,20,5.20
2010,11,22,09,21,9.70
2010,11,22,09,22,8.40
2010,11,22,09,23,6.60
2010,11,22,09,24,13.90
2010,11,22,09,25,9.80
2010,11,22,09,26,16.10
2010,11,22,09,27,6.00
2010,11,22,09,28,13.30
2010,11,22,09,29,16.30
2010,11,22,09,30,11.30
2010,11,22,09,31,16.20
2010,11,22,09,32,11.90
2010,11,22,09,33,13.40
2010,11,22,09,34,4.10
2010,11,22,09,35,6.30
2010,11,22,09,36,12.50
2010,11,22,09,37,13.60
2010,11,22,09,38,6.40
2010,11,22,09,39,7.40
2010,11,22,09,40,10.50
2010,11,22,09,41,13.90
2010,11,22,09,42,3.00
2010,11,22,09,43,6.60
2010,11,22,09,44,6.40
2010,11,22,09,45,3.80
2010,11,22,09,46,9.40
2010,11,22,09,47,10.20
2010,11,22,09,48,5.50
2010,11,22,09,49,6.20
2010,11,22,09,50,2.80
2010,11,22,09,51,6.70
2010,11,22,09,52,8.60
2010,11,22,09,53,11.30
2010,11,22,09,54,3.90
2010,11,22,09,55,9.60
2010,11,22,09,56,11.30
2010,11,22,09,57,14.10
2010,11,22,09,58,17.10
2010,11,22,09,59,6.90
2010,11,22,10,00,9.70
2010,11,22,10,01,11.20
2010,11,22,10,02,7.70
2010,11,22,10,03,23.40
2010,11,22,10,04,13.60
2010,11,22,10,05,14.30
2010,11,22,10,06,20.90
2010,11,22,10,07,13.70
2010,11,22,10,08,21.80
2010,11,22,10,09,21.30
2010,11,22,10,10,7.10
2010,11,22,10,11,9.40
2010,11,22,10,12,13.80
2010,11,22,10,13,5.30
2010,11,22,10,14,3.20
2010,11,22,10,15,3.00
2010,11,22,10,16,9.70
2010,11,22,10,17,15.80
2010,11,22,10,18,9.30
2010,11,22,10,19,10.70
2010,11,22,10,20,10.20
2010,11,22,10,21,8.90
2010,11,22,10,22,10.80
2010,11,22,10,23,14.50
2010,11,22,10,24,11.90
2010,11,22,10,25,5.20
2010,11,22,10,26,7.10
2010,11,22,10,27,5.60
2010,11,22,10,28,3.60
2010,11,22,10,29,3.60
2010,11,22,10,30,9.80
2010,11,22,10,31,13.00
2010,11,22,10,32,0.80
2010,11,22,10,33,15.60
2010,11,22,10,34,11.40
2010,11,22,10,35,12.20
2010,11,22,10,36,4.70
2010,11,22,10,37,13.60
2010,11,22,10,38,8.70
2010,11,22,10,39,8.00
2010,11,22,10,40,7.10
2010,11,22,10,41,9.40
2010,11,22,10,42,7.30
2010,11,22,10,43,11.90
2010,11,22,10,44,8.00
2010,11,22,10,45,10.00
2010,11,22,10,46,4.70
2010,11,22,10,47,15.60
2010,11,22,10,48,6.90
2010,11,22,10,49,6.90
2010,11,22,10,50,14.20
2010,11,22,10,51,24.30
2010,11,22,10,52,8.90
2010,11,22,10,53,6.80
2010,11,22,10,54,2.50
2010,11,22,10,55,7.90
2010,11,22,10,56,11.60
2010,11,22,10,57,4.80
2010,11,22,10,58,11.90
2010,11,22,10,59,14.20
2010,11,22,11,00,10.40
2010,11,22,11,01,1.70
2010,11,22,11,02,2.00
2010,11,22,11,03,12.90
2010,11,22,11,04,16.70
2010,11,22,11,05,8.70
2010,11,22,11,06,4.60
2010,11,22,11,07,13.40
2010,11,22,11,08,13.20
2010,11,22,11,09,17.80
2010,11,22,11,10,22.40
2010,11,22,11,11,9.40
2010,11,22,11,12,8.50
2010,11,22,11,13,9.70
2010,11,22,11,14,14.20
2010,11,22,11,15,8.00
2010,11,22,11,16,14.50
2010,11,22,11,17,11.90
2010,11,22,11,18,14.70
2010,11,22,11,19,6.00
2010,11,22,11,20,6.00
2010,11,22,11,21,4.80
2010,11,22,11,22,10.80
2010,11,22,11,23,13.80
2010,11,22,11,24,7.40
2010,11,22,11,25,4.80
2010,11,22,11,26,6.10
2010,11,22,11,27,14.60
2010,11,22,11,28,12.60
2010,11,22,11,29,13.20
2010,11,22,11,30,7.50
2010,11,22,11,31,13.10
2010,11,22,11,32,20.50
2010,11,22,11,33,11.20
2010,11,22,11,34,6.90
2010,11,22,11,35,18.30
2010,11,22,11,36,9.90
2010,11,22,11,37,12.80
2010,11,22,11,38,7.70
2010,11,22,11,39,11.00
2010,11,22,11,40,14.40
2010,11,22,11,41,7.90
2010,11,22,11,42,4.70
2010,11,22,11,43,4.20
2010,11,22,11,44,9.50
2010,11,22,11,45,10.70
2010,11,22,11,46,14.10
2010,11,22,11,47,20.40
2010,11,22,11,48,11.50
2010,11,22,11,49,5.40
2010,11,22,11,50,6.90
2010,11,22,11,51,13.20
2010,11,22,11,52,8.70
2010,11,22,11,53,8.80
2010,11,22,11,54,12.30
2010,11,22,11,55,4.80
2010,11,22,11,56,21.20
2010,11,22,11,57,10.90
2010,11,22,11,58,7.30
2010,11,22,11,59,10.20
2010,11,22,12,00,4.60
2010,11,22,12,01,4.00
2010,11,22,12,02,7.40
2010,11,22,12,03,11.30
2010,11,22,12,04,5.00
2010,11,22,12,05,10.90
2010,11,22,12,06,20.60
2010,11,22,12,07,15.10
2010,11,22,12,08,6.50
2010,11,22,12,09,11.90
2010,11,22,12,10,11.40
2010,11,22,12,11,13.70
2010,11,22,12,12,20.90
2010,11,22,12,13,22.60
2010,11,22,12,14,12.80
2010,11,22,12,15,16.50
2010,11,22,12,16,18.60
2010,11,22,12,17,15.40
2010,11,22,12,18,22.10
2010,11,22,12,19,14.00
2010,11,22,12,20,9.60
2010,11,22,12,21,16.00
2010,11,22,12,22,17.20
2010,11,22,12,23,23.20
2010,11,22,12,24,13.00
2010,11,22,12,25,8.90
2010,11,22,12,26,12.30
2010,11,22,12,27,5.90
2010,11,22,12,28,2.30
2010,11,22,12,29,14.20
2010,11,22,12,30,8.60
2010,11,22,12,31,13.10
2010,11,22,12,32,13.70
2010,11,22,12,33,22.70
2010,11,22,12,34,12.90
2010,11,22,12,35,24.10
2010,11,22,12,36,11.80
2010,11,22,12,37,12.00
2010,11,22,12,38,17.90
2010,11,22,12,39,22.70
2010,11,22,12,40,17.20
2010,11,22,12,41,14.30
2010,11,22,12,42,14.20
2010,11,22,12,43,16.50
2010,11,22,12,44,17.50
2010,11,22,12,45,14.50
2010,11,22,12,46,5.10
2010,11,22,12,47,1.40
2010,11,22,12,48,12.50
2010,11,22,12,49,16.30
2010,11,22,12,50,16.50
2010,11,22,12,51,5.30
2010,11,22,12,52,16.10
2010,11,22,12,53,12.50
2010,11,22,12,54,11.40
2010,11,22,12,55,8.00
2010,11,22,12,56,22.10
2010,11,22,12,57,15.10
2010,11,22,12,58,11.30
2010,11,22,12,59,11.90
2010,11,22,13,00,24.30
2010,11,22,13,01,10.70
2010,11,22,13,02,4.00
2010,11,22,13,03,4.00
2010,11,22,13,04,10.70
2010,11,22,13,05,14.00
2010,11,22,13,06,23.40
2010,11,22,13,07,13.80
2010,11,22,13,08,13.00
2010,11,22,13,09,13.20
2010,11,22,13,10,9.00
2010,11,22,13,11,10.70
2010,11,22,13,12,9.30
2010,11,22,13,13,12.60
2010,11,22,13,14,14.50
2010,11,22,13,15,22.90
2010,11,22,13,16,12.30
2010,11,22,13,17,8.60
2010,11,22,13,18,13.70
2010,11,22,13,19,15.80
2010,11,22,13,20,20.10
2010,11,22,13,21,12.60
2010,11,22,13,22,18.60
2010,11,22,13,23,9.30
2010,11,22,13,24,21.50
2010,11,22,13,25,18.00
2010,11,22,13,26,19.20
2010,11,22,13,27,21.90
2010,11,22,13,28,14.80
2010,11,22,13,29,10.60
2010,11,22,13,30,10.60
2010,11,22,13,31,6.90
2010,11,22,13,32,4.60
2010,11,22,13,33,11.70
2010,11,22,13,34,12.50
2010,11,22,13,35,10.50
2010,11,22,13,36,24.40
2010,11,22,13,37,12.80
2010,11,22,13,38,19.70
2010,11,22,13,39,6.80
2010,11,22,13,40,13.80
2010,11,22,13,41,12.70
2010,11,22,13,42,15.20
2010,11,22,13,43,14.20
2010,11,22,13,44,12.80
2010,11,22,13,45,6.90
2010,11,22,13,46,11.90
2010,11,22,13,47,7.50
2010,11,22,13,48,5.40
2010,11,22,13,49,9.60
2010,11,22,13,50,15.60
2010,11,22,13,51,16.20
2010,11,22,13,52,17.90
2010,11,22,13,53,13.20
2010,11,22,13,54,6.20
2010,11,22,13,55,14.00
2010,11,22,13,56,22.10
2010,11,22,13,57,16.00
2010,11,22,13,58,15.80
2010,11,22,13,59,11.90
2010,11,22,14,00,13.00
2010,11,22,14,01,15.90
2010,11,22,14,02,20.30
2010,11,22,14,03,14.60
2010,11,22,14,04,12.90
2010,11,22,14,05,9.70
2010,11,22,14,06,13.10
2010,11,22,14,07,12.90
2010,11,22,14,08,9.40
2010,11,22,14,09,17.60
2010,11,22,14,10,21.10
2010,11,22,14,11,19.90
2010,11,22,14,12,14.00
2010,11,22,14,13,12.40
2010,11,22,14,14,10.60
2010,11,22,14,15,20.20
2010,11,22,14,16,9.70
2010,11,22,14,17,12.40
2010,11,22,14,18,16.60
2010,11,22,14,19,11.80
2010,11,22,14,20,8.10
2010,11,22,14,21,6.00
2010,11,22,14,22,16.30
2010,11,22,14,23,29.20
2010,11,22,14,24,10.00
2010,11,22,14,25,15.10
2010,11,22,14,26,11.90
2010,11,22,14,27,9.10
2010,11,22,14,28,10.20
2010,11,22,14,29,10.90
2010,11,22,14,30,10.80
2010,11,22,14,31,11.50
2010,11,22,14,32,15.40
2010,11,22,14,33,15.70
2010,11,22,14,34,8.10
2010,11,22,14,35,5.80
2010,11,22,14,36,10.30
2010,11,22,14,37,13.50
2010,11,22,14,38,15.00
2010,11,22,14,39,8.20
2010,11,22,14,40,16.70
2010,11,22,14,41,14.60
2010,11,22,14,42,4.10
2010,11,22,14,43,2.20
2010,11,22,14,44,6.20
2010,11,22,14,45,5.00
2010,11,22,14,46,15.90
2010,11,22,14,47,19.40
2010,11,22,14,48,12.70
2010,11,22,14,49,8.80
2010,11,22,14,50,13.70
2010,11,22,14,51,9.00
2010,11,22,14,52,11.40
2010,11,22,14,53,27.30
2010,11,22,14,54,11.40
2010,11,22,14,55,9.50
2010,11,22,14,56,16.90
2010,11,22,14,57,8.90
2010,11,22,14,58,24.90
2010,11,22,14,59,23.40
2010,11,22,15,00,10.60
2010,11,22,15,01,8.60
2010,11,22,15,02,14.60
2010,11,22,15,03,19.30
2010,11,22,15,04,10.80
2010,11,22,15,05,20.00
2010,11,22,15,06,15.80
2010,11,22,15,07,12.70
2010,11,22,15,08,15.20
2010,11,22,15,09,17.70
2010,11,22,15,10,8.90
2010,11,22,15,11,16.30
2010,11,22,15,12,22.10
2010,11,22,15,13,16.60
2010,11,22,15,14,9.40
2010,11,22,15,15,14.90
2010,11,22,15,16,3.90
2010,11,22,15,17,16.30
2010,11,22,15,18,12.10
2010,11,22,15,19,6.30
2010,11,22,15,20,12.80
2010,11,22,15,21,20.70
2010,11,22,15,22,11.10
2010,11,22,15,23,19.70
2010,11,22,15,24,9.20
2010,11,22,15,25,4.90
2010,11,22,15,26,11.80
2010,11,22,15,27,11.70
2010,11,22,15,28,12.90
2010,11,22,15,29,9.40
2010,11,22,15,30,9.50
2010,11,22,15,31,21.30
2010,11,22,15,32,13.50
2010,11,22,15,33,10.30
2010,11,22,15,34,9.20
2010,11,22,15,35,8.40
2010,11,22,15,36,17.30
2010,11,22,15,37,11.00
2010,11,22,15,38,11.70
2010,11,22,15,39,24.70
2010,11,22,15,40,13.00
2010,11,22,15,41,11.30
2010,11,22,15,42,7.20
2010,11,22,15,43,9.70
2010,11,22,15,44,15.70
2010,11,22,15,45,10.30
2010,11,22,15,46,16.40
2010,11,22,15,47,11.70
2010,11,22,15,48,10.30
2010,11,22,15,49,7.40
2010,11,22,15,50,14.60
2010,11,22,15,51,9.30
2010,11,22,15,52,6.40
2010,11,22,15,53,10.10
2010,11,22,15,54,8.60
2010,11,22,15,55,12.40
2010,11,22,15,56,11.20
2010,11,22,15,57,10.70
2010,11,22,15,58,8.40
2010,11,22,15,59,11.30
2010,11,22,16,00,12.20
2010,11,22,16,01,15.70
2010,11,22,16,02,10.80
2010,11,22,16,03,16.40
2010,11,22,16,04,10.90
2010,11,22,16,05,10.70
2010,11,22,16,06,19.00
2010,11,22,16,07,10.70
2010,11,22,16,08,9.90
2010,11,22,16,09,16.90
2010,11,22,16,10,14.60
2010,11,22,16,11,15.90
2010,11,22,16,12,17.20
2010,11,22,16,13,10.80
2010,11,22,16,14,7.60
2010,11,22,16,15,12.20
2010,11,22,16,16,16.90
2010,11,22,16,17,19.10
2010,11,22,16,18,16.70
2010,11,22,16,19,16.30
2010,11,22,16,20,14.10
2010,11,22,16,21,16.60
2010,11,22,16,22,10.00
2010,11,22,16,23,14.50
2010,11,22,16,24,14.70
2010,11,22,16,25,15.90
2010,11,22,16,26,23.60
2010,11,22,16,27,16.20
2010,11,22,16,28,13.80
2010,11,22,16,29,18.70
2010,11,22,16,30,7.70
2010,11,22,16,31,11.10
2010,11,22,16,32,16.20
2010,11,22,16,33,14.10
2010,11,22,16,34,8.40
2010,11,22,16,35,14.10
2010,11,22,16,36,8.30
2010,11,22,16,37,10.00
2010,11,22,16,38,12.50
2010,11,22,16,39,13.90
2010,11,22,16,40,11.10
2010,11,22,16,41,21.20
2010,11,22,16,42,24.10
2010,11,22,16,43,21.50
2010,11,22,16,44,9.60
2010,11,22,16,45,13.00
2010,11,22,16,46,14.70
2010,11,22,16,47,22.40
2010,11,22,16,48,7.40
2010,11,22,16,49,9.50
2010,11,22,16,50,18.80
2010,11,22,16,51,17.20
2010,11,22,16,52,20.20
2010,11,22,16,53,13.90
2010,11,22,16,54,14.10
2010,11,22,16,55,12.90
2010,11,22,16,56,13.70
2010,11,22,16,57,9.30
2010,11,22,16,58,15.00
2010,11,22,16,59,13.80
2010,11,22,17,00,12.90
2010,11,22,17,01,21.60
2010,11,22,17,02,14.80
2010,11,22,17,03,8.20
2010,11,22,17,04,16.60
2010,11,22,17,05,17.10
2010,11,22,17,06,14.40
2010,11,22,17,07,13.60
2010,11,22,17,08,13.60
2010,11,22,17,09,22.40
2010,11,22,17,10,19.60
2010,11,22,17,11,26.90
2010,11,22,17,12,19.20
2010,11,22,17,13,6.90
2010,11,22,17,14,15.80
2010,11,22,17,15,9.70
2010,11,22,17,16,12.40
2010,11,22,17,17,21.30
2010,11,22,17,18,18.80
2010,11,22,17,19,9.70
2010,11,22,17,20,27.10
2010,11,22,17,21,24.10
2010,11,22,17,22,14.60
2010,11,22,17,23,21.60
2010,11,22,17,24,14.90
2010,11,22,17,25,17.20
2010,11,22,17,26,16.40
2010,11,22,17,27,10.70
2010,11,22,17,28,22.90
2010,11,22,17,29,7.60
2010,11,22,17,30,14.10
2010,11,22,17,31,17.10
2010,11,22,17,32,24.80
2010,11,22,17,33,12.80
2010,11,22,17,34,14.60
2010,11,22,17,35,26.80
2010,11,22,17,36,16.80
2010,11,22,17,37,9.50
2010,11,22,17,38,16.90
2010,11,22,17,39,19.00
2010,11,22,17,40,12.00
2010,11,22,17,41,11.30
2010,11,22,17,42,11.40
2010,11,22,17,43,25.00
2010,11,22,17,44,30.50